Regional Weather Roundup
Issued by NWS

Home | Current Version | Previous Version | Graphics & Text | Print | Product List | Glossary On
Versions: 1 2 3 4 5 6 7 8 9 10 11 12 13 14 15 16 17 18 19 20 21 22 23 24 25 26 27 28 29 30 31 32 33 34 35 36 37 38 39 40 41 42 43 44 45 46 47 48 49 50
000
ASUS43 KLOT 221802
RWRIL

ILLINOIS REGIONAL WEATHER ROUNDUP
NATIONAL WEATHER SERVICE CHICAGO/ROMEOVILLE IL
100 PM CDT WED MAR 22 2017

NOTE: "FAIR" INDICATES FEW OR NO CLOUDS BELOW 12,000 FEET WITH NO
SIGNIFICANT WEATHER AND/OR OBSTRUCTIONS TO VISIBILITY.

* THESE STATIONS ARE NOT UNDER NWS QUALITY CONTROL. THEY ALSO MAY NOT
  REPORT WEATHER SUCH AS PRECIPITATION OR FOG.

ILZ001-002-007-009-015-016-024-221900-
NORTHWEST ILLINOIS

CITY           SKY/WX    TMP DP  RH WIND       PRES   REMARKS
MOLINE         SUNNY     41  18  39 E15G25    30.53F
6HR MIN TEMP:  27; 6HR MAX TEMP:  41;

STERLING*      SUNNY     38  17  42 E14       30.55F WCI  30
SAVANNA*       SUNNY     37  13  37 SE9       30.56F WCI  31
$$

ILZ003-004-008-010-011-017-018-221900-
NORTH CENTRAL ILLINOIS

CITY           SKY/WX    TMP DP  RH WIND       PRES   REMARKS
ROCKFORD       MOSUNNY   38  15  39 E8        30.58F WCI  32
6HR MIN TEMP:  23; 6HR MAX TEMP:  39;

FREEPORT*      SUNNY     35  13  41 NE6       30.58F WCI  30
ROCHELLE*      SUNNY     36  17  45 E10       30.56F WCI  29
DE KALB*       SUNNY     36  18  47 NE6       30.56S WCI  31
PERU*          SUNNY     37  21  52 E8        30.55F WCI  30
$$

ILZ005-006-012>014-019>023-221900-
NORTHEAST ILLINOIS

CITY           SKY/WX    TMP DP  RH WIND       PRES   REMARKS
CHICAGO-OHARE  MOSUNNY   35  18  49 E12G22    30.57F WCI  27
6HR MIN TEMP:  29; 6HR MAX TEMP:  36;

CHICAGO-MIDWAY MOSUNNY   33  17  51 NE15G23   30.58F WCI  23
6HR MIN TEMP:  29; 6HR MAX TEMP:  34;

AURORA         MOSUNNY   39  20  46 SE9       30.56F WCI  33
6HR MIN TEMP:  26; 6HR MAX TEMP:  39;

LANSING*       SUNNY     32  20  61 NE8G17    30.58F WCI  24
JOLIET*        SUNNY     37  21  52 E7        30.57F WCI  32
WAUKEGAN       CLOUDY    32  20  61 VRB7      30.58S WCI  26
6HR MIN TEMP:  26; 6HR MAX TEMP:  33;

DUPAGE AIRPORT SUNNY     37  19  48 NE13      30.55F WCI  29
6HR MIN TEMP:  26; 6HR MAX TEMP:  37;

KANKAKEE*      SUNNY     36  12  37 NE5       30.57F WCI  32
WHEELING       MOSUNNY   32  18  56 E12       30.59F WCI  23
6HR MIN TEMP:  27; 6HR MAX TEMP:  33;

MORRIS*        MOSUNNY   37  20  49 E6        30.56S WCI  33
NORTHERLY ISL    N/A     30  18  60 E8          N/A  WCI  23
$$

LMZ740>746-221900-
SOUTHERN LAKE MICHIGAN

STATION/POSITION SKY/WX   TEMP    WIND        PRES    VSBY  WAVE
                          AIR SEA DIR/SP/G                  HT/PER
                          (F)     (DEG/KT/KT) (MB)    (MI)  (FT/S)
HARRISON CRIB              28      60/ 10/ 12   N/A
BURNHAM HARBOR             30      70/  7/ 12   N/A
CALUMET HARBOR             28      60/  9/ 15 1035.2F
BURNS HARBOR               27      30/  9/ 11 1035.9F
MICHIGAN CITY              26      10/ 11/ 13   N/A
$$

ILZ025>027-034>036-040-047-049-050-058-095>099-221900-
WEST-CENTRAL ILLINOIS

CITY           SKY/WX    TMP DP  RH WIND       PRES   REMARKS
QUINCY         SUNNY     43  20  39 E12       30.47F
GALESBURG*     SUNNY     39  22  50 SE10G17   30.51F WCI  32
MACOMB*        SUNNY     41  18  40 E13G18    30.53F
JACKSONVILLE*  SUNNY     42  16  34 E15G22    30.50F
PITTSFIELD*    SUNNY     44  19  36 E13G18    30.49F
$$

ILZ028>032-037-038-041>044-048-051>054-059>061-221900-
CENTRAL ILLINOIS

CITY           SKY/WX    TMP DP  RH WIND       PRES   REMARKS
PONTIAC        MOSUNNY   36  24  62 E8G20     30.56F WCI  29
BLOOMINGTON    SUNNY     37  14  38 E16       30.54S WCI  28
DECATUR        SUNNY     41  13  31 NE17      30.51F
PEORIA         SUNNY     38  20  48 E9        30.54F WCI  31
6HR MIN TEMP:  29; 6HR MAX TEMP:  39;

LACON*         MOSUNNY   37  22  54 E10G18    30.54F WCI  30
LINCOLN*       SUNNY     40  16  37 E12G20    30.52F
SPRINGFIELD    SUNNY     44  12  27 E16G23    30.51F
6HR MIN TEMP:  30; 6HR MAX TEMP:  45;

TAYLORVILLE    SUNNY     42  12  29 E10       30.49F
6HR MIN TEMP:  29; 6HR MAX TEMP:  42;

$$

ILZ033-039-045-046-055>057-062-063-221900-
EAST-CENTRAL ILLINOIS

CITY           SKY/WX    TMP DP  RH WIND       PRES   REMARKS
CHAMPAIGN      SUNNY     39  15  37 NE16G24   30.52F WCI  30
RANTOUL*       SUNNY     38  21  50 E13G22    30.53F WCI  30
MATTOON        SUNNY     42  15  33 E15G22    30.48F
PARIS*         SUNNY     38  21  49 E15G21    30.52F WCI  30
$$

ILZ079-100>102-221900-
SOUTHWEST ILLINOIS

CITY           SKY/WX    TMP DP  RH WIND       PRES   REMARKS
ALTON          MOSUNNY   45  19  36 NE9       30.46F
BELLEVILLE     SUNNY     47  22  37 E12G17    30.44F
CAHOKIA*       SUNNY     47  20  34 E13G20    30.45F
SPARTA*        SUNNY     46  25  43 NE12G17   30.44F
$$

ILZ064>066-069>071-074>076-080>082-084>086-088>090-092>094-221900-
SOUTH-CENTRAL ILLINOIS

CITY           SKY/WX    TMP DP  RH WIND       PRES   REMARKS
CARBONDALE     SUNNY     49  26  41 NE16G22   30.43F
6HR MIN TEMP:  38; 6HR MAX TEMP:  49;

CAIRO*         MOSUNNY   51  30  44 NE10G20   30.38F
EFFINGHAM*     SUNNY     44  22  41 NE6       30.49F
MARION         MOSUNNY   54  23  30 NE14      30.42F
MT. VERNON     SUNNY     46  24  42 NE14      30.44F
CENTRALIA*     SUNNY     46  26  46 NE9G17    30.44F
SALEM*         SUNNY     44  22  41 NE15      30.46F
METROPOLIS*    SUNNY     52  25  34 NE12G17   30.40S
$$

ILZ067-068-072-073-078-083-087-091-221900-
SOUTHEAST ILLINOIS

CITY           SKY/WX    TMP DP  RH WIND       PRES   REMARKS
LAWRENCEVILLE  SUNNY     45  18  34 NE9       30.47F
FLORA*         SUNNY     45  20  37 E13G18    30.46F
FAIRFIELD*     SUNNY     46  24  41 NE9       30.44F
HARRISBURG*    SUNNY     49  27  42 NE12      30.43F
ROBINSON*      SUNNY     42  17  36 NE13      30.49F
CARMI*         SUNNY     47  24  41 NE14      30.43F
$$

ABBREVIATIONS USED IN REMARKS
   TC - TEMPERATURE IN CELSIUS
  WCI - WIND CHILL INDEX
   HX - HEAT INDEX
  VSB - VISIBILITY
$$





USA.gov is the U.S. government's official web portal to all federal, state and local government web resources and services.